Wind_Speed
3 3 3 4 4 5 5 5 6 6 6 5 5 5 5 5 5 5 5 5 5 5 5 6 7 6 6 5 5 5 5 5 5 6 5 5 6 5 6 5 5 5 5
4 3 2 2 4 5 5 5 6 6 5 5 4 5 5 5 5 6 5 5 5 5 5 5 6 6 5 4 5 6 6 6 5 5 5 5 5 5 5 5 5 4 4
4 4 4 3 4 5 5 5 5 5 5 5 5 5 5 5 5 6 6 5 5 4 5 5 6 5 5 4 5 5 6 6 4 4 5 5 5 4 5 4 4 4 4
5 5 4 4 4 5 5 5 5 6 6 5 5 5 5 5 6 6 6 6 5 4 4 5 5 4 4 4 5 6 6 5 4 4 4 4 4 4 4 4 3 3 4
5 6 5 5 5 5 6 6 6 5 5 5 4 4 5 5 5 5 5 5 5 4 3 4 4 4 4 5 6 6 5 5 4 4 5 4 4 3 3 3 3 3 3
5 5 6 6 5 5 5 6 6 5 4 4 4 4 5 5 5 5 5 5 5 4 4 4 4 4 5 5 6 6 5 5 4 4 4 4 4 4 2 2 2 3 4
6 6 7 6 6 6 6 5 5 4 4 4 4 4 5 5 5 5 4 4 4 4 4 4 5 5 5 6 5 5 4 4 4 4 4 4 3 3 3 3 3 4 4
7 6 5 6 6 6 6 5 4 4 4 3 4 3 4 4 4 4 3 3 4 4 4 4 5 5 5 5 4 4 4 4 4 3 3 3 3 3 3 4 4 3 4
8 7 6 6 6 5 6 5 4 3 2 2 3 4 4 3 3 3 3 3 3 3 3 4 4 4 3 3 3 3 3 3 3 4 3 3 2 2 2 3 3 3 3
9 8 7 7 6 5 5 4 3 3 2 2 3 4 3 3 3 3 3 3 3 3 3 3 3 3 3 3 2 2 3 2 2 3 3 2 2 2 1 2 2 2 2
10 9 9 7 6 5 5 5 4 3 2 3 4 4 4 3 3 3 3 3 3 3 3 3 3 3 3 2 2 2 2 2 2 2 2 1 1 1 1 1 1 1 1
10 10 10 9 7 6 5 5 4 4 3 4 3 4 4 3 3 3 3 4 3 3 3 3 3 2 2 2 2 1 1 1 1 1 0 0 0 1 1 1 1 2 2
11 10 10 9 8 7 5 5 5 5 4 3 3 3 4 4 3 3 3 4 4 4 3 2 2 2 2 1 1 1 0 0 0 1 1 1 0 0 0 1 2 2 3
12 11 10 9 8 7 6 5 5 5 5 3 3 3 4 4 4 4 4 4 4 3 3 2 2 2 1 1 1 1 1 1 1 1 1 1 1 1 1 1 2 3 3
12 11 10 9 9 7 7 6 5 5 6 5 5 4 4 4 4 4 4 3 3 3 2 2 1 1 1 1 0 0 1 2 2 2 3 2 2 2 2 2 2 3 4
12 11 11 11 10 8 7 7 7 5 5 5 5 5 5 4 4 3 3 3 4 3 3 2 1 1 1 1 1 0 1 1 1 1 2 2 3 3 3 3 2 3 4
13 12 11 11 10 9 8 7 6 6 5 5 5 5 4 4 4 3 3 3 4 3 2 2 2 2 1 0 1 1 2 2 2 2 2 3 3 3 3 3 3 3 4
13 12 11 11 10 9 8 8 6 6 5 5 5 5 5 4 4 3 3 3 3 2 2 2 1 1 0 0 1 2 3 3 3 3 4 4 4 4 4 4 3 4 5
13 12 12 11 10 10 9 8 7 6 5 5 5 5 5 4 4 4 4 4 2 2 2 1 1 1 1 1 2 2 3 3 3 3 4 4 5 4 4 4 4 5 6
12 12 11 11 11 10 10 9 8 7 7 5 5 5 5 4 4 4 4 3 3 2 1 0 1 0 1 1 2 2 2 2 2 3 4 4 5 5 4 4 5 6 6
12 12 11 11 11 10 10 9 8 7 7 7 6 5 5 5 5 4 4 4 3 3 2 2 2 1 1 2 3 3 2 2 2 3 3 3 4 5 5 4 5 6 6
11 11 11 11 11 11 10 10 9 9 8 7 7 6 5 4 4 4 4 4 4 4 3 2 2 2 3 3 4 3 2 2 3 3 4 4 4 4 4 5 6 7 7
10 10 10 10 11 11 10 9 9 8 8 7 6 5 5 5 4 4 3 3 3 3 3 3 3 3 3 4 4 3 2 2 3 3 3 4 4 5 5 6 6 6 6
10 10 10 10 10 10 10 9 8 8 7 6 5 5 5 5 4 3 3 3 3 3 3 3 4 3 4 4 3 3 2 3 2 3 4 4 5 5 6 6 6 6 6
9 9 9 9 9 8 8 8 8 6 6 5 5 4 4 4 3 2 1 1 2 3 3 3 3 4 4 4 3 3 3 3 2 3 3 4 4 5 5 5 5 6 6
8 8 9 8 8 7 7 7 7 7 5 5 4 3 4 3 3 2 2 1 2 3 3 3 3 3 3 3 3 2 3 3 3 3 3 4 4 4 5 5 6 6 6
Wind_Direction
93 95 97 92 104 107 108 114 116 122 118 111 110 110 109 109 114 120 125 129 127 128 128 127 132 124 119 118 127 130 120 117 112 110 128 125 127 132 137 133 127 128 134
84 76 95 100 107 119 116 118 125 129 126 120 119 115 109 107 113 122 128 128 128 127 127 131 133 127 120 114 113 127 133 127 113 106 115 120 119 125 130 134 126 134 130
88 79 86 110 106 112 122 123 131 132 131 127 122 115 106 106 110 121 124 118 112 130 138 135 138 127 121 121 119 120 124 127 121 116 113 117 120 123 135 135 130 131 130
82 85 86 104 116 115 124 133 136 137 131 130 129 126 112 108 110 114 115 110 107 115 123 135 139 133 127 127 123 117 117 120 125 118 112 116 119 126 140 141 140 130 130
81 85 97 95 107 119 128 137 135 134 132 128 129 127 117 113 115 117 112 110 112 114 117 130 136 132 130 130 127 124 126 124 124 117 112 115 113 122 139 138 134 130 134
82 82 93 98 103 119 128 137 136 138 139 136 135 131 124 119 113 114 118 117 117 115 118 125 136 130 126 127 125 125 129 127 119 114 114 111 108 107 119 126 129 129 136
74 83 94 95 108 112 115 123 127 138 151 149 151 146 134 125 117 116 118 121 126 128 126 125 131 127 124 124 127 128 128 125 116 111 108 110 112 114 114 123 133 135 144
70 83 93 83 98 104 101 100 106 113 118 129 146 146 139 135 126 120 122 121 122 126 120 128 131 131 123 119 122 129 126 120 119 122 111 100 102 107 119 130 145 149 140
73 76 77 77 85 96 94 92 94 93 101 118 133 137 137 142 138 129 126 125 124 131 138 144 138 144 135 124 114 121 117 109 116 110 105 100 112 118 121 137 150 137 139
71 73 74 76 86 87 83 77 77 75 97 126 140 145 148 155 149 148 147 144 137 138 141 146 141 131 135 127 122 119 110 105 110 101 102 95 105 136 146 144 150 146 144
66 69 72 77 82 82 77 75 77 77 90 118 137 151 157 160 163 161 171 170 159 147 143 149 145 137 152 150 128 129 121 110 103 99 108 98 107 145 174 152 128 148 157
66 65 69 66 70 72 76 80 87 86 95 112 132 152 164 170 174 175 181 179 167 153 152 153 154 147 156 161 137 138 126 97 90 78 105 118 124 188 207 204 244 229 214
73 74 72 69 68 69 80 83 85 92 89 99 115 147 165 165 169 181 186 168 159 158 153 158 169 160 174 169 163 178 203 345 264 258 305 317 269 232 235 238 245 232 227
69 69 65 64 64 61 63 74 73 90 87 88 111 133 156 168 174 175 169 165 159 161 152 152 179 197 219 244 218 215 257 260 252 249 266 277 288 274 275 256 249 226 228
65 65 63 63 65 58 54 60 68 85 93 100 105 123 144 158 165 168 168 166 167 179 178 154 190 210 212 251 286 237 252 241 251 255 263 273 296 293 294 294 261 238 239
60 60 61 62 61 59 60 60 71 78 92 101 106 108 118 129 148 153 177 179 168 177 189 184 201 206 212 263 294 268 252 243 262 272 271 288 298 289 282 294 263 248 251
57 56 61 62 60 55 53 58 61 69 85 96 105 102 106 111 131 151 161 155 149 149 165 185 214 221 272 273 314 317 309 304 289 289 284 284 290 281 278 286 265 259 259
52 51 56 56 54 52 53 54 62 70 83 97 101 95 93 96 106 120 136 139 134 133 143 160 183 214 232 346 337 317 310 303 295 284 275 273 275 277 280 279 283 268 263
49 48 52 51 48 50 55 57 64 68 75 88 92 87 84 86 92 107 115 133 126 121 144 167 217 237 246 324 324 318 313 301 296 292 283 274 271 273 272 275 276 271 271
47 47 46 49 47 53 58 61 66 67 71 77 83 77 77 81 88 98 107 107 93 77 110 15 332 324 320 343 357 335 324 319 301 305 290 281 277 275 274 274 272 276 275
44 45 46 44 46 52 59 64 65 69 73 74 75 75 77 82 91 90 93 91 80 67 48 43 41 44 19 6 359 342 322 320 294 296 293 295 292 280 267 268 277 280 277
41 41 43 42 46 50 58 63 67 67 69 69 70 77 76 78 85 89 85 80 66 47 28 16 6 15 6 353 347 338 323 311 298 299 284 287 287 293 292 288 287 284 281
37 37 38 41 46 52 56 61 66 66 64 64 65 67 67 76 86 90 78 60 47 32 21 11 9 11 1 352 352 350 334 332 327 322 315 300 295 299 299 299 292 285 288
34 35 36 38 43 51 53 56 59 57 58 61 64 65 65 69 74 78 69 37 28 22 13 5 11 10 4 354 351 355 342 334 334 329 325 316 308 306 310 306 303 302 298
31 31 32 35 40 48 51 51 49 46 48 53 55 51 51 52 54 44 35 1 357 359 356 352 352 359 356 350 340 348 354 348 338 329 333 330 321 316 315 313 308 306 305
23 22 26 28 38 43 43 42 42 41 40 38 36 29 30 32 27 7 349 353 343 340 344 353 351 341 344 345 344 356 360 353 339 325 322 327 334 329 326 320 312 310 307
Height
5878 5878 5879 5879 5879 5880 5880 5880 5881 5881 5881 5882 5882 5882 5882 5882 5881 5881 5881 5881 5881 5881 5881 5881 5881 5881 5881 5881 5882 5882 5882 5882 5882 5882 5882 5882 5883 5883 5883 5883 5883 5883 5883
5879 5879 5879 5879 5879 5880 5880 5881 5881 5882 5882 5882 5883 5883 5883 5883 5882 5882 5882 5882 5882 5882 5882 5882 5883 5883 5882 5883 5883 5883 5883 5883 5883 5883 5883 5883 5884 5884 5884 5884 5884 5884 5884
5879 5879 5879 5879 5880 5880 5881 5881 5882 5882 5883 5883 5883 5883 5883 5884 5883 5883 5883 5884 5883 5883 5883 5883 5883 5884 5884 5884 5884 5884 5884 5884 5884 5884 5884 5884 5884 5884 5884 5884 5884 5884 5884
5880 5880 5880 5880 5880 5881 5881 5882 5882 5883 5883 5884 5884 5884 5884 5884 5884 5884 5884 5885 5884 5884 5884 5885 5884 5884 5885 5885 5885 5885 5885 5885 5885 5885 5885 5885 5885 5884 5884 5884 5884 5884 5884
5880 5880 5880 5881 5881 5881 5882 5882 5883 5884 5884 5884 5885 5884 5885 5885 5885 5885 5885 5885 5886 5886 5886 5886 5886 5885 5885 5885 5885 5886 5886 5886 5886 5886 5886 5886 5885 5884 5884 5884 5884 5884 5885
5880 5881 5881 5881 5881 5882 5882 5883 5883 5884 5884 5885 5885 5885 5885 5885 5886 5886 5886 5886 5886 5886 5886 5886 5886 5886 5886 5886 5886 5886 5887 5887 5887 5886 5886 5886 5886 5885 5885 5885 5885 5885 5885
5881 5881 5881 5881 5882 5882 5883 5883 5884 5884 5884 5885 5885 5885 5885 5886 5886 5887 5887 5887 5887 5887 5887 5888 5888 5888 5887 5887 5887 5887 5887 5887 5887 5887 5887 5886 5886 5886 5885 5885 5885 5885 5885
5881 5882 5882 5882 5882 5883 5883 5884 5884 5884 5884 5885 5885 5885 5886 5886 5887 5887 5888 5888 5888 5887 5888 5889 5889 5889 5888 5888 5888 5888 5888 5888 5888 5888 5887 5887 5887 5886 5886 5886 5886 5885 5885
5883 5883 5883 5883 5883 5883 5884 5884 5884 5884 5884 5884 5885 5885 5886 5886 5887 5888 5888 5889 5889 5889 5889 5889 5890 5890 5889 5889 5889 5889 5889 5889 5888 5888 5888 5887 5887 5886 5886 5886 5886 5885 5885
5884 5884 5883 5884 5884 5884 5884 5884 5884 5884 5884 5884 5885 5885 5886 5886 5887 5888 5888 5889 5889 5889 5889 5889 5890 5890 5890 5890 5890 5889 5889 5889 5889 5889 5888 5888 5887 5887 5886 5886 5886 5885 5885
5885 5885 5884 5885 5885 5885 5884 5884 5884 5884 5884 5884 5885 5885 5885 5886 5887 5887 5888 5889 5889 5889 5889 5890 5890 5890 5890 5890 5890 5890 5889 5889 5889 5889 5888 5888 5887 5887 5887 5886 5886 5885 5885
5886 5886 5886 5885 5885 5885 5885 5884 5884 5884 5884 5884 5885 5885 5885 5886 5886 5887 5888 5888 5889 5889 5889 5889 5890 5890 5890 5890 5890 5890 5890 5889 5889 5889 5888 5888 5887 5887 5886 5886 5885 5885 5885
5888 5888 5887 5886 5886 5885 5885 5884 5884 5884 5884 5884 5885 5885 5885 5886 5886 5887 5888 5888 5889 5889 5889 5890 5890 5890 5890 5890 5890 5890 5890 5889 5889 5889 5888 5887 5887 5886 5886 5885 5885 5885 5885
5890 5889 5888 5887 5886 5886 5885 5884 5884 5884 5884 5885 5885 5885 5885 5886 5887 5887 5888 5888 5889 5889 5889 5889 5889 5889 5890 5890 5890 5889 5889 5889 5888 5888 5887 5887 5886 5886 5885 5885 5884 5884 5884
5891 5890 5889 5888 5887 5886 5885 5885 5884 5884 5885 5885 5885 5885 5885 5886 5886 5887 5888 5888 5889 5889 5889 5889 5889 5889 5889 5889 5889 5889 5888 5888 5887 5887 5887 5886 5885 5885 5885 5884 5884 5883 5883
5893 5892 5890 5889 5888 5887 5886 5886 5885 5885 5885 5885 5885 5885 5885 5886 5887 5887 5888 5888 5889 5889 5889 5889 5889 5889 5889 5889 5888 5888 5888 5887 5887 5886 5886 5885 5885 5884 5884 5883 5883 5883 5883
5895 5893 5892 5891 5889 5888 5887 5886 5886 5885 5885 5885 5885 5886 5886 5886 5887 5887 5888 5888 5888 5888 5889 5889 5889 5889 5889 5888 5888 5887 5887 5887 5886 5886 5885 5884 5884 5883 5883 5883 5882 5882 5882
5896 5895 5894 5892 5891 5889 5888 5887 5886 5885 5885 5886 5886 5886 5887 5887 5887 5887 5888 5888 5888 5888 5888 5889 5889 5889 5888 5888 5887 5887 5886 5886 5885 5884 5884 5883 5883 5882 5882 5882 5881 5881 5881
5898 5897 5895 5893 5892 5890 5889 5887 5887 5886 5886 5886 5887 5887 5887 5887 5887 5887 5887 5888 5888 5888 5888 5888 5888 5888 5888 5887 5887 5886 5885 5885 5884 5884 5883 5883 5882 5881 5881 5880 5880 5879 5879
5900 5898 5896 5895 5893 5891 5890 5889 5888 5888 5887 5887 5887 5887 5887 5888 5888 5888 5888 5888 5888 5888 5887 5887 5887 5887 5887 5886 5885 5885 5884 5884 5883 5883 5882 5882 5881 5881 5880 5879 5879 5878 5877
5901 5900 5898 5896 5894 5892 5891 5890 5889 5889 5889 5889 5888 5888 5888 5888 5888 5888 5888 5888 5888 5888 5887 5887 5886 5886 5886 5885 5885 5884 5884 5883 5882 5882 5881 5881 5880 5879 5878 5878 5877 5876 5876
5902 5901 5899 5898 5896 5894 5893 5892 5891 5890 5890 5890 5889 5889 5889 5889 5889 5889 5889 5888 5888 5888 5887 5887 5886 5885 5885 5885 5884 5884 5883 5883 5882 5881 5880 5880 5879 5878 5877 5876 5876 5875 5874
5904 5902 5901 5899 5897 5895 5894 5893 5892 5892 5891 5891 5890 5890 5890 5889 5889 5889 5889 5889 5888 5888 5887 5886 5886 5885 5885 5884 5884 5883 5882 5882 5881 5880 5879 5879 5878 5877 5876 5874 5874 5873 5872
5905 5903 5901 5900 5898 5896 5895 5894 5894 5893 5893 5892 5891 5891 5890 5889 5889 5889 5889 5889 5888 5887 5887 5886 5885 5884 5884 5883 5883 5882 5882 5881 5880 5880 5879 5878 5876 5876 5874 5873 5872 5871 5870
5906 5904 5902 5900 5899 5898 5896 5895 5895 5894 5893 5893 5892 5891 5891 5890 5889 5889 5889 5888 5888 5887 5886 5885 5884 5884 5883 5882 5882 5881 5880 5879 5879 5879 5878 5877 5876 5874 5873 5872 5871 5870 5869
5906 5904 5903 5901 5900 5898 5897 5896 5895 5894 5894 5893 5892 5891 5891 5890 5889 5888 5888 5887 5887 5886 5885 5884 5883 5883 5882 5881 5881 5880 5879 5878 5878 5877 5876 5876 5874 5873 5872 5871 5870 5869 5868